User: anonymous   Login
Location: Delettes
(50.6178°N, 2.2123°E)
Time: 20:16:18
(UTC+00:00)
Language:

STARLINK-48 - Orbit

View from above orbital plane
View from above orbital plane
View from above satellite
View from above satellite

Ground track
Ground track

The orbit data is extracted from the following two-line orbital elements,

1 44289U 19029BG  20158.54236662 +.00000878 +00000-0 +55169-4 0  9991
2 44289 052.9991 233.5568 0001660 147.5154 212.5943 15.19931198057012
Epoch (UTC): 06 June 2020 13:01:00
Eccentricity: 0.0001660
inclination: 52.9991°
perigee height: 505 km
apogee height: 507 km
right ascension of ascending node: 233.5568°
argument of perigee: 147.5154°
revolutions per day: 15.19931198
mean anomaly at epoch: 212.5943°
orbit number at epoch: 5701

The dashed part of the orbit path shows where the satellite is in the earth's shadow,  

DLR